Location: Risskov
(56.1972°N, 10.2480°E)
Time: 23:06:42
(UTC+00:00)

CZ-4C R/B - Pass Details

Date: 05 July 2020
Orbit: 632 x 1370 km, 63.4° (Epoch: 14 August)

Event Time Altitude Azimuth Distance (km) Brightness Sun altitude
Rises 23:23:21 0° 307° (NW) 3,667 6.1 -11.1°
Reaches altitude 10° 23:25:45 10° 307° (NW) 2,818 5.4 -11.1°
Maximum altitude 23:32:32 80° 222° (SW) 1,187 2.9 -11.1°
Drops below altitude 10° 23:40:35 10° 137° (SE) 3,301 4.9 -11.1°
Sets 23:43:34 0° 137° (SE) 4,329 5.5 -11.0°
